Hourly Weather Bolshie Karmaly

Today, 20 June, Sunday

Time Temperature Precipitation Wind Pressure Humidity
00:00 +17°C° 0 mm 5 mps 754 mmHg 87%
01:00 +17°C° 0 mm 5 mps 754 mmHg 88%
02:00 +18°C° 0 mm 4 mps 754 mmHg 89%
03:00 +18°C° 0 mm 4 mps 754 mmHg 89%
04:00 +19°C° 0 mm 4 mps 754 mmHg 86%
05:00 +20°C° 0 mm 4 mps 754 mmHg 83%
06:00 +21°C° 0 mm 3 mps 754 mmHg 80%
07:00 +22°C° 0 mm 3 mps 754 mmHg 75%
08:00 +25°C° 0 mm 3 mps 754 mmHg 70%
09:00 +26°C° 0 mm 4 mps 754 mmHg 65%
10:00 +27°C° 0 mm 4 mps 754 mmHg 62%
11:00 +28°C° 0 mm 4 mps 754 mmHg 59%
12:00 +29°C° 0 mm 4 mps 754 mmHg 55%
13:00 +29°C° 0 mm 4 mps 754 mmHg 55%
14:00 +30°C° 0 mm 3 mps 754 mmHg 54%
15:00 +30°C° 0 mm 3 mps 754 mmHg 53%
16:00 +29°C° 0 mm 3 mps 754 mmHg 58%
17:00 +29°C° 0 mm 3 mps 754 mmHg 63%
18:00 +28°C° 0 mm 3 mps 754 mmHg 68%
19:00 +26°C° 0 mm 3 mps 754 mmHg 72%
20:00 +25°C° 0 mm 2 mps 754 mmHg 77%
21:00 +23°C° 0 mm 2 mps 754 mmHg 82%
22:00 +23°C° 0 mm 2 mps 754 mmHg 83%
23:00 +22°C° 0 mm 1 mps 755 mmHg 85%

Tomorrow, 21 June, Monday

Time Temperature Precipitation Wind Pressure Humidity
00:00 +22°C° 0 mm 1 mps 755 mmHg 86%
01:00 +22°C° 0 mm 1 mps 755 mmHg 86%
02:00 +22°C° 0 mm 1 mps 755 mmHg 86%
03:00 +22°C° 0 mm 1 mps 755 mmHg 86%
04:00 +21°C° 0 mm 2 mps 755 mmHg 85%
05:00 +23°C° 0 mm 2 mps 755 mmHg 83%
06:00 +22°C° 0 mm 3 mps 755 mmHg 82%
07:00 +25°C° 0 mm 3 mps 755 mmHg 76%
08:00 +26°C° 0 mm 3 mps 755 mmHg 71%
09:00 +27°C° 0 mm 3 mps 755 mmHg 65%
10:00 +28°C° 0 mm 3 mps 755 mmHg 61%
11:00 +29°C° 0 mm 3 mps 755 mmHg 57%
12:00 +30°C° 0 mm 3 mps 755 mmHg 53%
13:00 +30°C° 0 mm 3 mps 755 mmHg 52%
14:00 +30°C° 0 mm 3 mps 755 mmHg 52%
15:00 +30°C° 0 mm 3 mps 755 mmHg 51%
16:00 +30°C° 0 mm 2 mps 754 mmHg 55%
17:00 +29°C° 0 mm 2 mps 754 mmHg 60%
18:00 +29°C° 0 mm 2 mps 754 mmHg 64%
19:00 +27°C° 0 mm 2 mps 754 mmHg 68%
20:00 +26°C° 0 mm 2 mps 754 mmHg 72%
21:00 +24°C° 0 mm 1 mps 754 mmHg 76%
22:00 +24°C° 0 mm 2 mps 754 mmHg 78%
23:00 +23°C° 0 mm 2 mps 754 mmHg 80%

Day after tomorrow, 22 June, Tuesday

Time Temperature Precipitation Wind Pressure Humidity
00:00 +23°C° 0 mm 2 mps 755 mmHg 82%
01:00 +21°C° 0 mm 2 mps 755 mmHg 84%
02:00 +21°C° 0 mm 2 mps 755 mmHg 86%
03:00 +21°C° 0 mm 2 mps 755 mmHg 89%
04:00 +23°C° 0 mm 2 mps 755 mmHg 86%
05:00 +23°C° 0 mm 2 mps 755 mmHg 83%
06:00 +24°C° 0 mm 2 mps 755 mmHg 80%
07:00 +26°C° 0 mm 2 mps 755 mmHg 75%
08:00 +27°C° 0 mm 2 mps 755 mmHg 70%
09:00 +28°C° 0 mm 2 mps 755 mmHg 65%
10:00 +29°C° 0 mm 2 mps 755 mmHg 62%
11:00 +30°C° 0 mm 2 mps 755 mmHg 58%
12:00 +31°C° 0 mm 2 mps 755 mmHg 55%
13:00 +31°C° 0 mm 2 mps 755 mmHg 53%
14:00 +31°C° 0 mm 2 mps 755 mmHg 52%
15:00 +32°C° 0 mm 2 mps 755 mmHg 50%
16:00 +31°C° 0 mm 2 mps 755 mmHg 54%
17:00 +30°C° 0 mm 2 mps 754 mmHg 59%
18:00 +30°C° 0 mm 2 mps 754 mmHg 64%
19:00 +28°C° 0 mm 2 mps 754 mmHg 67%
20:00 +27°C° 0 mm 2 mps 754 mmHg 71%
21:00 +25°C° 0 mm 2 mps 754 mmHg 75%
22:00 +25°C° 0 mm 2 mps 754 mmHg 77%
23:00 +24°C° 0 mm 2 mps 754 mmHg 78%

23 June, Wednesday

Time Temperature Precipitation Wind Pressure Humidity
00:00 +23°C° 0 mm 2 mps 754 mmHg 80%
01:00 +23°C° 0.1 mm 2 mps 754 mmHg 81%
02:00 +21°C° 0.1 mm 2 mps 754 mmHg 83%
03:00 +21°C° 0.1 mm 2 mps 755 mmHg 85%
04:00 +23°C° 0 mm 2 mps 755 mmHg 83%
05:00 +24°C° 0 mm 2 mps 754 mmHg 81%
06:00 +25°C° 0 mm 3 mps 754 mmHg 79%
07:00 +26°C° 0 mm 3 mps 754 mmHg 74%
08:00 +27°C° 0 mm 3 mps 754 mmHg 69%
09:00 +28°C° 0 mm 3 mps 754 mmHg 64%
10:00 +29°C° 0 mm 3 mps 754 mmHg 60%
11:00 +30°C° 0 mm 3 mps 754 mmHg 56%
12:00 +31°C° 0 mm 3 mps 754 mmHg 53%
13:00 +31°C° 0 mm 3 mps 754 mmHg 51%
14:00 +31°C° 0 mm 3 mps 754 mmHg 49%
15:00 +31°C° 0 mm 3 mps 754 mmHg 47%
16:00 +31°C° 0 mm 3 mps 753 mmHg 52%
17:00 +30°C° 0 mm 3 mps 753 mmHg 58%
18:00 +29°C° 0 mm 3 mps 753 mmHg 64%
19:00 +28°C° 0 mm 3 mps 753 mmHg 68%
20:00 +27°C° 0 mm 3 mps 753 mmHg 73%
21:00 +25°C° 0 mm 2 mps 753 mmHg 78%
22:00 +25°C° 0 mm 2 mps 753 mmHg 79%
23:00 +24°C° 0 mm 2 mps 753 mmHg 80%

24 June, Thursday

Time Temperature Precipitation Wind Pressure Humidity
00:00 +24°C° 0 mm 3 mps 753 mmHg 81%
01:00 +23°C° 0 mm 2 mps 753 mmHg 83%
02:00 +23°C° 0 mm 2 mps 753 mmHg 86%
03:00 +21°C° 0 mm 2 mps 753 mmHg 88%
04:00 +23°C° 0 mm 2 mps 752 mmHg 84%
05:00 +24°C° 0 mm 2 mps 752 mmHg 81%
06:00 +25°C° 0 mm 2 mps 752 mmHg 77%
07:00 +26°C° 0 mm 2 mps 752 mmHg 71%
08:00 +28°C° 0 mm 3 mps 752 mmHg 65%
09:00 +29°C° 0 mm 3 mps 752 mmHg 59%
10:00 +30°C° 0.1 mm 4 mps 752 mmHg 57%
11:00 +32°C° 0.1 mm 4 mps 752 mmHg 55%
12:00 +33°C° 0.1 mm 4 mps 752 mmHg 53%
13:00 +33°C° 0.1 mm 4 mps 752 mmHg 51%
14:00 +34°C° 0.1 mm 4 mps 752 mmHg 49%
15:00 +34°C° 0.1 mm 4 mps 752 mmHg 47%
16:00 +33°C° 0 mm 5 mps 751 mmHg 53%
17:00 +32°C° 0 mm 5 mps 751 mmHg 59%
18:00 +30°C° 0 mm 5 mps 751 mmHg 66%
19:00 +28°C° 0.5 mm 4 mps 751 mmHg 73%
20:00 +25°C° 0.5 mm 3 mps 751 mmHg 81%
21:00 +23°C° 0.5 mm 2 mps 751 mmHg 88%
22:00 +23°C° 0 mm 2 mps 750 mmHg 89%
23:00 +22°C° 0 mm 3 mps 750 mmHg 89%

25 June, Friday

Time Temperature Precipitation Wind Pressure Humidity
00:00 +24°C° 0 mm 3 mps 750 mmHg 89%
01:00 +22°C° 0 mm 3 mps 750 mmHg 88%
02:00 +22°C° 0 mm 3 mps 750 mmHg 87%
03:00 +22°C° 0 mm 3 mps 750 mmHg 86%
04:00 +22°C° 0 mm 4 mps 750 mmHg 83%
05:00 +23°C° 0 mm 4 mps 750 mmHg 80%
06:00 +23°C° 0 mm 4 mps 750 mmHg 76%
07:00 +26°C° 0 mm 4 mps 750 mmHg 72%
08:00 +27°C° 0 mm 4 mps 750 mmHg 67%
09:00 +28°C° 0 mm 4 mps 750 mmHg 62%
10:00 +29°C° 0 mm 4 mps 750 mmHg 59%
11:00 +30°C° 0 mm 4 mps 750 mmHg 57%
12:00 +32°C° 0 mm 4 mps 750 mmHg 54%
13:00 +32°C° 0.3 mm 4 mps 749 mmHg 53%
14:00 +32°C° 0.3 mm 4 mps 749 mmHg 52%
15:00 +33°C° 0.3 mm 4 mps 749 mmHg 51%
16:00 +29°C° 1.1 mm 4 mps 749 mmHg 61%
17:00 +27°C° 1.1 mm 4 mps 749 mmHg 72%
18:00 +25°C° 1.1 mm 5 mps 749 mmHg 82%
19:00 +23°C° 0.2 mm 5 mps 749 mmHg 85%
20:00 +22°C° 0.2 mm 5 mps 749 mmHg 87%
21:00 +21°C° 0.2 mm 5 mps 749 mmHg 90%
22:00 +21°C° 0 mm 4 mps 749 mmHg 89%
23:00 +21°C° 0 mm 3 mps 749 mmHg 89%
Show more